Regional Weather Roundup
Issued by NWS New Orleans/Baton Rouge, LA

Home | Current Version | Previous Version | Text Only | Print | Product List | Glossary On
Versions: 1 2 3 4 5 6 7 8 9 10 11 12 13 14 15 16 17 18 19 20 21 22 23 24 25 26 27 28 29 30 31 32 33 34 35 36 37 38 39 40 41 42 43 44 45 46 47 48 49 50
466
ASUS44 KLIX 190710
RWRLIX
NEW ORLEANS REGIONAL WEATHER ROUNDUP
NATIONAL WEATHER SERVICE NEW ORLEANS LA
200 AM CDT SAT APR 19 2014

NOTE: "FAIR" INDICATES FEW OR NO CLOUDS BELOW 12,000 FEET WITH NO
      SIGNIFICANT WEATHER AND/OR OBSTRUCTIONS TO VISIBILITY.
      SKY/WX - SKY CONDITION AND SIGNIFICANT WEATHER.
      TMP - AIR TEMPERATURE.     DP    - DEWPOINT TEMPERATURE.
      RH  - RELATIVE HUMIDITY.   PRES  - PRESSURE.
      HI  - HEAT INDEX.          WCI   - WIND CHILL INDEX.

*  THESE STATIONS ARE NOT NWS OR FAA STATIONS AND ARE NOT UNDER
   NWS QUALITY CONTROL.

LAZ038-040-048-061>063-065>067-069-190800-
SOUTHEAST LOUISIANA

CITY           SKY/WX    TMP DP  RH WIND       PRES   REMARKS
N.O. AUDUBON     N/A     61  53  76 MISG        N/A
N.O. INTL ARPT PTCLDY    61  54  77 NE17      30.12F
N.O. LAKEFRONT CLEAR     61  55  81 NE22      30.13F
N.O. DOWNTOWN*   N/A     61  50  67 N10       30.12F
SLIDELL        CLEAR     56  52  86 N6        30.13F
BATON ROUGE    CLEAR     58  53  84 NE5       30.13F
BOOTHVILLE     CLOUDY    61  54  77 N12G20    30.10F
BELLE CHASSE   CLEAR     59  52  77 NE10      30.11F
BOGALUSA*        N/A     54  51  90 N6        30.17F
GALLIANO*      SUNNY     62  55  80 N13       30.11F
NEW ROADS*       N/A     58  56  94 E3        30.14S
GONZALES*        N/A     60  56  87 CALM      30.13S
HAMMOND*       CLEAR     57  52  82 NE5       30.15F
HOUMA*           N/A     58  54  85 N5        30.12F
PORT FOURCHON* MOSUNNY   63  57  82 NE10      30.13S

$$

MSZ070-080>082-190800-
SOUTHERN MISSISSIPPI

CITY           SKY/WX    TMP DP  RH WIND       PRES   REMARKS
MCCOMB         CLEAR     56  52  86 NE7       30.15F
GULFPORT       PTCLDY    57  53  86 N9        30.12F
BILOXI         PTCLDY    57  53  86 N9        30.12F
PASCAGOULA     CLOUDY    56  54  93 NW8       30.11F

$$

COASTAL OBSERVATIONS
LAKE AND NEARSHORE STATIONS

STATION/POSITION TIME  TEMP    WIND        PRES    WAVE
                       AIR SEA DIR/SP/G            HT/PER
                 (UTC) (F)     (DEG/KT/KT) (MB)    (FT/S)
PASCAGOULA       0700   57     340/  9/ 13 1018.9
WAVELAND YACHT   0700   57 67  360/ 12/ 14 1019.4
GRAND ISLE       0700   62 67   40/ 10/ 18 1019.6
SOUTHWEST PASS   0700   63 58   20/ 13/ 16 1019.2
NEW CANAL        0700   61 65   40/ 21/ 23 1020.1
SHELL BEACH      0700   60 62   20/ 19/ 23 1019.5

OFFSHORE STATIONS

STATION/POSITION TIME  TEMP    WIND        PRES    WAVE
                       AIR SEA DIR/SP/G            HT/PER
                 (UTC) (F)     (DEG/KT/KT) (MB)    (FT/S)
64 S DAUPHIN ISL 0622   62 70   10/ 21/ 25 1017.9

$$




USA.gov is the U.S. government's official web portal to all federal, state and local government web resources and services.